Theta_e
321 325 325 327 331 327 328 323 322 321 321 320 320 321 322 322 325 328 321 324 323 323 324 322 326 329 330 331 332 333 333 334 334 333 333 333 332 332 332 332 332 333 334 335 336 336 335 336 335
324 323 324 329 329 330 326 321 320 320 320 319 319 320 321 323 320 317 317 321 320 320 320 319 323 326 328 329 330 330 330 330 330 331 330 328 326 327 327 326 326 327 328 329 330 330 330 331 333
321 322 327 329 328 325 324 321 319 319 318 319 319 318 319 320 319 317 317 318 317 317 317 316 318 322 325 325 326 326 326 326 327 324 322 320 320 319 319 318 317 319 322 324 326 328 326 326 327
322 322 322 321 322 322 321 320 319 319 319 318 320 319 316 315 319 317 315 316 315 315 315 314 317 320 320 319 318 318 318 318 318 314 312 311 309 309 311 312 310 308 308 314 320 319 319 319 321
319 323 325 324 323 321 319 319 319 319 317 317 318 319 317 314 314 313 313 314 313 312 312 314 316 316 316 315 314 313 312 312 311 307 303 301 301 302 300 302 307 309 310 311 313 311 309 304 308
322 321 324 323 323 320 319 319 319 318 318 317 316 317 317 313 311 309 310 311 310 310 310 309 311 312 312 312 311 311 309 306 304 303 302 298 297 297 297 297 298 298 298 299 298 298 298 298 298
323 327 325 323 322 322 320 318 318 318 318 317 318 318 314 311 311 309 307 307 307 308 306 304 303 302 302 305 306 305 302 298 297 296 296 296 296 296 296 296 297 296 297 297 297 297 297 297 298
319 322 322 323 322 322 319 318 317 318 319 317 316 316 317 312 310 308 306 304 304 303 303 303 302 301 299 298 300 297 296 296 295 295 296 298 297 297 295 295 295 296 299 301 300 300 300 301 304
320 321 323 324 322 321 317 317 316 314 316 317 315 316 313 312 309 307 305 304 303 302 302 302 300 301 301 298 295 295 295 295 296 297 298 298 296 296 296 295 296 296 299 300 301 301 301 296 297
321 325 326 320 319 319 318 316 316 315 315 315 315 312 311 310 307 306 305 304 303 302 301 301 301 300 300 298 296 297 298 298 297 297 297 297 296 296 296 295 295 295 294 294 294 295 294 294 295
321 322 321 320 319 317 317 317 316 315 316 315 314 313 309 308 307 306 305 305 304 302 301 300 300 300 299 297 298 297 297 297 296 295 296 296 296 295 295 295 295 295 294 293 293 293 293 293 294
320 320 320 320 317 317 317 317 316 315 315 317 316 316 309 308 306 306 306 306 306 304 302 300 300 300 298 297 298 298 297 297 297 295 295 296 295 295 295 294 294 293 293 292 292 292 292 292 293
319 319 319 318 317 316 316 315 315 314 314 314 314 313 309 309 308 307 307 307 307 305 303 300 299 299 299 298 298 298 298 297 297 295 294 295 294 294 294 293 293 293 292 291 291 292 292 292 292
318 317 317 317 316 316 316 316 316 315 313 314 314 310 310 309 309 309 308 308 308 306 303 300 299 298 298 298 298 297 297 296 296 295 294 292 293 293 293 293 292 292 291 291 291 291 291 291 291
317 316 316 316 316 316 317 315 315 314 315 314 313 312 310 309 311 310 310 308 308 307 304 300 299 298 298 297 297 297 296 296 295 295 293 292 292 292 292 292 292 291 290 290 290 290 290 290 290
316 317 318 319 317 315 315 316 317 315 314 313 312 311 311 310 310 311 311 309 309 307 303 300 299 298 297 297 297 297 296 295 295 294 293 292 292 292 291 291 291 291 290 289 289 290 289 289 289
318 318 318 320 317 315 314 316 317 316 317 314 312 311 311 311 310 312 311 311 309 307 303 300 298 298 297 297 297 296 296 294 294 293 292 292 291 290 290 290 291 290 289 289 289 289 288 288 288
319 318 317 317 316 315 315 315 314 314 314 312 311 310 311 311 311 311 312 311 309 307 302 300 298 297 297 296 296 295 295 294 293 293 292 292 291 290 290 290 290 289 288 288 288 288 288 288 288
317 317 317 317 317 316 315 316 315 315 313 312 313 313 312 311 311 312 311 310 309 306 302 300 298 296 296 296 295 295 294 294 293 292 292 291 290 290 290 289 289 288 288 287 287 287 287 287 287
316 316 316 316 315 315 314 315 315 314 314 314 313 313 313 311 310 309 309 309 307 304 302 299 298 296 296 295 295 294 294 293 293 292 292 291 290 289 289 289 288 287 287 286 286 287 287 287 287
315 315 315 315 315 313 313 314 313 312 313 313 313 313 312 309 309 308 307 307 306 303 301 299 297 296 295 295 295 294 294 294 293 292 291 290 289 289 289 288 287 287 286 286 286 286 286 286 286
314 314 315 315 315 316 314 315 314 314 313 311 311 310 309 308 309 308 306 305 304 302 301 299 297 296 295 295 295 294 293 292 292 292 291 290 289 289 288 287 287 286 286 285 285 285 286 285 285
315 313 313 314 316 316 316 315 314 313 312 312 311 311 310 309 308 307 305 305 304 302 300 298 297 296 296 295 295 294 292 292 292 291 290 290 289 288 287 287 287 286 285 285 285 285 285 284 284
310 313 312 312 312 314 313 314 313 313 313 312 310 309 309 310 307 306 306 305 303 302 300 298 297 296 296 295 294 294 292 292 292 291 290 289 288 287 287 286 286 285 284 284 284 284 284 284 283
311 315 316 318 315 317 313 314 315 314 310 309 309 309 308 308 306 304 303 302 302 301 300 298 297 296 296 295 294 293 292 292 292 291 290 289 288 287 286 286 285 284 284 283 283 283 282 282 282
311 314 317 317 315 315 313 315 314 313 311 308 308 309 308 307 306 304 302 301 301 301 299 298 297 296 295 295 294 293 292 292 291 291 291 289 288 287 286 285 284 284 283 282 282 281 281 281 281
313 313 314 315 309 314 315 313 312 312 310 309 309 307 306 306 305 304 302 301 301 300 299 297 296 295 295 294 293 293 292 291 291 290 290 289 288 287 285 285 284 283 282 281 280 280 280 280 280
309 310 314 314 311 312 312 310 311 313 312 309 309 307 306 306 304 303 302 301 301 300 298 297 296 295 295 294 293 292 291 291 290 290 289 288 287 286 285 284 283 281 281 280 279 279 279 279 279
307 309 310 311 316 313 313 312 308 312 313 310 308 308 306 306 305 303 302 302 301 300 298 297 296 295 295 294 292 292 291 290 289 289 288 287 286 284 284 283 282 281 280 279 279 278 278 278 277
309 311 311 313 313 311 313 314 312 308 308 308 307 307 306 307 306 303 302 300 299 299 299 297 295 295 294 294 292 291 290 289 288 287 286 286 284 283 282 282 281 280 279 278 278 277 277 276 276
Wind_Speed
3 7 8 5 1 3 5 5 4 5 1 4 7 3 2 6 2 2 11 10 11 11 6 8 9 9 8 7 5 6 7 8 7 7 6 6 7 8 12 11 10 10 7 7 8 9 8 7 8
3 4 4 4 2 4 3 8 5 7 6 7 7 4 1 3 6 9 12 12 12 11 7 7 9 9 7 7 6 5 6 7 5 9 9 7 7 6 7 7 8 9 9 9 9 9 9 10 10
0 3 2 3 4 6 3 4 7 8 7 5 4 2 5 4 9 16 15 16 13 10 6 9 9 8 7 6 5 5 4 4 10 8 10 9 9 9 9 8 7 8 9 11 11 12 11 10 8
3 4 4 2 9 8 4 4 14 8 3 4 1 3 5 3 8 14 18 16 15 11 8 11 11 11 10 10 9 7 5 7 5 6 7 8 8 9 9 10 10 10 10 11 11 10 11 12 13
3 3 3 6 10 3 5 5 9 9 8 7 4 3 4 7 12 17 20 17 17 14 10 13 12 12 12 11 10 10 10 10 8 7 6 6 7 8 9 11 12 12 12 12 12 12 12 12 13
3 2 4 6 6 5 4 3 6 9 9 7 6 5 5 18 17 18 18 16 15 15 13 12 14 13 11 10 10 10 10 8 7 7 7 8 9 8 8 8 9 10 12 12 13 14 14 14 13
3 2 6 10 8 2 5 6 5 7 7 7 2 3 4 13 19 20 19 18 16 15 13 10 10 10 9 10 9 9 7 6 6 6 7 8 7 8 8 8 10 10 11 12 12 12 13 14 15
3 2 6 5 4 5 5 6 4 6 4 3 8 5 5 16 24 21 18 17 16 15 14 13 11 9 9 10 10 9 8 8 9 9 9 11 10 9 11 11 12 13 13 14 14 15 15 14 14
1 3 5 8 0 0 6 5 6 1 1 3 7 2 5 30 26 23 20 19 19 18 17 16 14 14 11 10 10 9 10 9 9 9 11 8 6 7 9 12 13 13 14 13 14 15 15 15 14
4 3 5 3 5 3 6 7 6 2 6 6 5 8 11 28 27 23 22 23 24 22 20 18 17 16 13 9 10 7 7 6 6 6 7 6 5 7 7 9 10 12 14 15 16 15 16 16 16
5 5 1 4 2 3 5 5 6 6 8 7 12 11 15 20 22 21 23 26 28 26 24 22 20 18 17 15 12 10 8 7 6 6 6 6 4 5 6 8 11 12 14 15 15 16 17 18 17
4 11 8 1 2 1 4 4 6 11 11 2 3 3 17 19 18 25 25 28 29 29 27 24 22 22 20 19 15 13 11 10 8 6 6 5 3 3 5 7 10 12 13 15 15 15 16 16 16
8 9 6 6 4 5 8 9 8 12 11 14 8 3 15 17 22 27 28 29 29 32 32 30 26 25 23 20 17 15 14 12 11 8 7 6 3 2 4 6 9 9 11 14 14 15 16 16 17
5 7 10 7 9 7 6 6 5 9 14 14 10 12 11 14 20 23 29 30 34 33 34 32 29 27 25 22 20 19 15 15 12 10 8 7 5 3 2 4 5 8 12 13 14 14 15 16 17
3 7 9 10 10 5 5 9 14 20 5 8 11 11 12 13 23 28 32 32 34 35 35 35 32 28 27 25 22 21 19 17 15 13 10 8 6 3 1 2 4 8 11 11 11 12 14 18 19
4 5 4 2 11 6 9 12 11 16 12 14 11 9 9 13 18 26 29 32 33 33 36 35 33 31 28 26 24 22 20 18 16 14 12 10 8 5 4 1 3 7 9 10 11 14 17 19 20
8 7 10 8 10 8 10 9 4 4 2 7 10 10 11 13 16 28 31 30 33 35 36 36 34 33 31 27 26 23 22 20 18 16 14 12 10 7 4 2 4 7 9 11 13 14 17 20 24
6 9 9 9 8 7 7 17 13 9 6 11 10 11 13 13 15 25 34 35 35 36 36 36 35 33 32 28 26 23 23 22 20 18 16 15 12 9 6 4 5 6 9 10 10 15 16 17 20
13 15 15 21 10 9 14 17 18 15 10 11 14 18 15 14 13 28 35 36 36 37 37 37 37 34 34 33 32 28 29 26 24 21 19 19 16 13 9 7 5 6 7 8 10 12 15 21 18
9 12 19 15 10 9 11 14 11 10 16 18 18 18 20 8 9 10 28 35 37 38 39 38 40 39 38 38 36 28 30 26 26 23 24 21 19 16 11 8 6 6 7 8 9 8 13 16 6
19 13 19 17 13 4 5 8 12 10 19 19 20 21 17 10 11 10 17 28 32 35 40 43 43 42 39 37 34 23 25 18 24 26 27 24 22 17 15 11 9 8 9 10 9 10 10 13 15
22 9 11 11 7 10 8 7 9 6 9 10 16 15 11 10 9 9 12 21 30 34 38 41 40 40 40 37 38 38 32 25 27 34 30 25 23 20 17 14 11 10 11 11 10 10 12 12 15
17 4 4 5 7 7 8 8 9 11 10 13 11 14 14 10 11 11 13 24 29 34 38 40 38 40 39 43 42 41 36 34 26 29 28 27 24 21 18 15 12 12 12 12 12 13 15 15 15
4 0 4 3 2 9 11 11 5 9 11 6 9 13 16 8 9 9 14 25 26 33 35 36 38 38 42 44 41 42 39 33 27 32 33 29 25 21 18 15 14 14 14 13 13 13 15 16 17
4 3 3 3 3 12 14 14 20 6 8 10 12 13 7 9 9 10 11 11 21 29 33 35 38 36 41 44 42 42 39 37 36 38 35 30 25 23 20 16 15 15 13 12 14 16 17 16 19
9 9 5 7 6 20 5 8 6 9 11 12 12 17 10 10 9 10 11 11 20 26 35 37 38 37 40 44 42 40 41 40 40 40 37 32 29 25 19 18 18 17 15 15 15 16 18 18 21
5 6 4 3 1 5 11 12 8 4 11 11 15 8 9 9 9 10 9 14 21 27 34 37 35 36 38 41 39 40 40 40 41 39 34 31 28 25 23 22 20 17 16 15 15 17 19 19 20
3 3 2 3 3 8 20 11 15 6 16 9 6 8 7 7 9 9 9 14 22 26 30 33 34 37 38 38 39 38 39 42 39 37 36 34 30 28 25 22 18 16 16 15 15 17 18 17 20
3 4 5 2 5 10 15 15 6 5 3 9 9 8 9 10 10 10 10 17 27 28 29 32 36 37 38 40 40 38 39 40 40 39 38 36 31 26 23 20 18 17 16 16 16 16 18 20 22
8 14 13 10 13 4 8 27 6 8 10 10 9 9 8 8 10 10 11 12 18 25 30 37 35 35 41 39 40 41 40 39 39 39 37 34 30 26 24 21 19 17 17 16 17 17 19 20 22
Wind_Direction
28 348 315 287 285 208 255 165 80 113 103 66 318 61 42 75 353 190 139 136 124 116 88 112 119 109 111 119 124 114 107 93 90 93 86 82 74 67 58 54 54 61 50 37 34 27 14 6 358
93 303 269 275 246 256 292 107 149 153 72 84 35 36 335 86 92 121 138 152 139 129 133 115 115 116 122 115 136 132 109 97 85 86 86 83 56 45 45 30 28 30 28 24 20 14 9 13 15
20 288 275 203 235 256 31 113 143 79 99 132 147 10 353 88 106 143 146 148 138 129 142 126 117 120 127 127 131 130 132 106 97 89 78 70 67 59 55 41 28 23 25 31 30 30 24 10 10
309 203 269 256 270 293 33 119 111 112 83 330 58 172 82 60 129 151 150 147 143 144 159 131 122 116 115 114 115 128 138 120 118 93 82 73 65 60 56 48 41 30 21 22 24 7 355 351 341
243 268 258 229 249 227 95 333 120 157 159 173 168 166 138 155 131 148 153 157 151 158 155 139 127 122 119 115 111 108 106 104 102 102 90 73 64 58 46 43 40 37 35 31 23 13 1 351 342
277 233 276 257 301 86 94 178 156 174 167 124 167 280 138 154 150 154 157 159 157 157 163 151 142 134 127 122 119 114 113 115 108 103 93 81 66 62 52 48 41 34 29 25 15 6 1 356 349
255 278 259 285 309 302 177 136 215 198 179 172 88 217 108 157 166 163 163 164 168 177 170 167 166 169 164 153 149 144 132 129 124 114 103 95 87 81 72 68 56 48 40 33 24 16 8 2 0
320 280 267 263 269 339 101 146 29 257 228 39 137 223 197 177 166 164 168 169 173 180 178 178 175 167 171 172 168 157 148 128 117 108 107 82 61 58 57 51 50 42 39 30 23 17 13 14 11
244 279 268 269 315 273 105 196 150 103 193 212 180 353 84 149 159 165 173 179 182 187 189 192 183 182 194 176 163 147 131 128 118 92 92 88 73 71 41 38 43 37 41 31 26 19 15 11 9
215 233 262 28 359 285 162 216 171 185 209 217 197 115 131 152 163 176 183 190 192 190 191 196 191 188 191 187 170 160 138 133 140 136 119 115 78 62 52 39 33 30 28 20 17 13 7 4 1
219 231 62 310 306 357 285 221 244 190 245 204 212 192 162 166 179 191 197 199 197 195 196 198 196 196 189 190 184 178 174 170 163 148 136 124 104 75 48 29 23 20 17 13 7 4 1 357 355
265 245 260 312 87 289 251 281 258 216 230 325 216 210 164 177 187 197 202 204 200 197 198 197 197 197 194 196 190 187 188 187 192 173 150 133 130 80 44 26 21 17 11 7 3 359 354 351 348
223 262 280 256 181 239 277 258 253 255 243 239 223 158 174 188 198 202 205 207 203 199 196 195 194 199 194 198 187 191 194 187 198 192 173 161 160 100 47 32 19 9 5 1 357 352 349 347 341
6 303 291 265 216 218 225 257 210 235 235 242 231 194 197 197 202 204 205 206 205 200 196 193 195 200 198 193 193 192 194 193 190 196 191 170 167 127 74 45 24 358 357 355 350 344 340 334 333
279 300 269 239 216 226 168 271 233 242 249 229 231 216 198 213 202 208 210 204 202 202 195 191 194 199 201 193 196 197 193 198 193 202 199 189 184 175 166 6 354 348 344 341 338 335 335 332 328
231 234 282 275 171 159 139 269 235 244 205 219 228 241 221 212 220 216 215 206 206 198 192 190 191 195 199 194 197 196 197 195 198 204 201 201 201 199 199 211 331 331 334 339 340 343 332 328 325
222 252 236 262 176 139 179 254 256 67 160 222 220 232 233 225 218 212 213 208 202 200 190 188 188 191 195 194 198 196 201 192 200 201 200 207 210 209 213 260 307 321 333 343 344 328 327 326 328
225 226 252 260 198 188 209 250 264 254 245 253 248 242 240 243 222 204 202 201 197 196 190 189 188 191 195 193 195 196 202 195 201 204 199 215 218 221 219 249 283 314 329 337 327 316 323 324 326
253 264 264 267 254 183 236 240 251 261 255 245 253 258 252 243 231 207 195 194 192 190 185 187 186 189 192 190 187 192 199 198 202 203 205 214 214 216 219 233 262 297 309 310 309 316 320 320 335
270 269 266 276 294 208 248 251 252 260 262 257 255 262 262 238 242 184 175 184 185 182 184 187 190 191 195 195 195 195 200 206 207 205 209 214 214 218 222 231 246 263 275 285 295 309 305 308 321
248 249 259 263 283 222 310 269 252 245 249 258 261 255 260 228 230 175 172 178 176 177 183 188 192 194 196 197 198 194 197 194 198 206 211 208 213 218 220 225 233 249 265 274 280 286 286 286 293
265 235 257 266 284 259 181 283 231 220 227 226 248 256 248 222 214 167 168 170 174 182 187 192 192 193 197 196 197 195 186 185 199 202 208 208 213 214 218 222 231 245 256 256 267 272 267 268 276
263 207 232 270 265 301 258 281 221 192 232 240 242 254 258 219 194 164 174 175 179 182 189 193 193 198 197 199 201 198 199 206 214 211 209 208 209 214 219 225 233 238 239 247 252 254 261 269 269
118 86 214 231 213 255 209 216 226 205 213 221 223 240 254 177 158 161 163 169 179 187 192 192 196 202 202 202 202 204 203 202 197 188 187 201 210 214 221 223 228 234 241 246 252 257 260 264 269
195 141 289 293 195 252 187 222 241 196 177 188 211 234 193 154 159 166 163 172 177 184 189 194 198 202 203 207 206 207 209 204 200 194 201 202 204 209 216 220 225 232 240 244 245 256 263 265 263
184 183 177 240 251 275 201 250 236 205 217 206 204 236 160 170 174 177 176 174 183 187 190 195 199 202 202 206 208 208 211 207 205 205 210 211 209 213 211 215 222 230 238 246 252 259 264 265 265
182 203 195 262 115 298 253 267 311 273 238 220 219 166 175 178 176 182 175 181 189 193 197 200 200 204 204 205 206 208 210 207 204 206 209 208 208 208 211 218 227 235 242 247 252 257 262 268 273
217 165 131 228 253 243 276 279 270 208 233 223 192 205 217 208 192 188 189 195 197 202 204 202 203 205 206 207 208 207 208 210 206 205 205 207 209 211 214 221 229 235 242 246 254 264 274 277 276
169 237 223 268 193 241 269 273 278 139 153 178 208 205 227 199 199 197 198 200 199 202 202 201 204 205 208 209 206 206 208 207 206 205 208 210 210 211 218 224 230 238 245 252 258 264 270 272 274
235 221 191 226 237 230 237 262 222 153 164 161 193 198 213 201 196 197 205 192 190 199 199 203 205 204 208 206 204 204 205 203 201 204 206 208 206 210 217 223 232 240 246 254 260 265 268 268 269